Location: Bacea
(45.9500°N, 22.6667°E)
Time: 10:17:09
(UTC+00:00)

HJ-1C - Pass Details

Date: 16 October 2021
Orbit: 422 x 433 km, 97.1° (Epoch: 07 December)

Event Time Altitude Azimuth Distance (km) Brightness Sun altitude
Exits shadow 17:19:02 24° 163° (SSE) 929 4.8 -17.7°
Maximum altitude 17:20:52 84° 78° (ENE) 432 3.1 -18.0°
Drops below altitude 10° 17:24:08 10° 349° (N) 1,524 6.3 -18.6°
Sets 17:26:09 0° 349° (N) 2,398 7.3 -18.9°
